Weather History for Adrian, MI

Change the Weather History Date:

Saturday, November 2, 2013

  Actual Average Record
Temperature  
Mean Temperature 44 °F -  
Max Temperature 50 °F 57 °F 76 °F (1961)
Min Temperature 41 °F 37 °F 19 °F (1980)
Degree Days  
Heating Degree Days 20    
Moisture  
Dew Point 41 °F    
Average Humidity 85    
Maximum Humidity 100    
Minimum Humidity 63    
Precipitation  
Precipitation 0.00 in - - ()
Sea Level Pressure  
Sea Level Pressure 29.83 in    
Wind  
Wind Speed 6 mph (NNW)    
Max Wind Speed 13 mph    
Max Gust Speed 18 mph    
Visibility 9 miles    
Events Rain    
Averages and records for this station are not official NWS values.
T = Trace of Precipitation, MM = Missing Value Source: NWS Daily Summary

Daily Weather History Graph

Daily Weather History Graph

Search for Another Location

Airport:

Trip Planner

Search our weather history database for the weather conditions in past years. The results will help you decide how hot, cold, wet, or windy it might be!

Date:

Astronomy

Nov. 02, 2013 Rise Set
Actual Time 8:10 AM EDT 6:28 PM EDT
Civil Twilight 7:41 AM EDT 6:57 PM EDT
Nautical Twilight 7:08 AM EDT 7:30 PM EDT
Astronomical Twilight 6:35 AM EDT 8:03 PM EDT
Moon 7:05 AM EDT (11/2) 6:00 PM EDT (11/2)
Length of Visible Light 11h 16m
Length of Day
10h 18m
Waning Crescent, 1% of the Moon is Illuminated
Nov 2
Waning Crescent
Nov 3
New
Nov 10
First Quarter
Nov 17
Full
Nov 25
Last Quarter

Hourly Weather History & Observations

Time (EDT) Temp. Windchill Dew Point Humidity Pressure Visibility Wind Dir Wind Speed Gust Speed Precip Events Conditions
12:53 AM 46.0 °F 43.1 °F 41.0 °F 83% 29.69 in 10.0 mi West 5.8 mph - N/A   Overcast
1:53 AM 46.0 °F 43.1 °F 43.0 °F 89% 29.69 in 10.0 mi West 5.8 mph - 0.00 in Rain Light Rain
2:27 AM 46.4 °F 44.3 °F 42.8 °F 87% 29.67 in 10.0 mi West 4.6 mph - 0.00 in Rain Light Rain
2:53 AM 46.0 °F 44.8 °F 43.0 °F 89% 29.70 in 8.0 mi West 3.5 mph - 0.00 in Rain Light Rain
3:31 AM 44.6 °F 42.2 °F 44.6 °F 100% 29.68 in 6.0 mi West 4.6 mph - 0.00 in Rain Light Rain
3:53 AM 45.0 °F 42.6 °F 44.1 °F 97% 29.70 in 7.0 mi West 4.6 mph - 0.00 in Rain Light Rain
4:53 AM 45.0 °F 42.6 °F 43.0 °F 93% 29.70 in 8.0 mi West 4.6 mph - 0.00 in Rain Light Rain
5:08 AM 44.6 °F 42.2 °F 42.8 °F 93% 29.69 in 9.0 mi West 4.6 mph - 0.00 in Rain Light Rain
5:53 AM 45.0 °F 41.8 °F 43.0 °F 93% 29.72 in 10.0 mi West 5.8 mph - 0.00 in Rain Light Rain
6:21 AM 44.6 °F 42.2 °F 42.8 °F 93% 29.71 in 10.0 mi West 4.6 mph - 0.00 in Rain Light Rain
6:53 AM 45.0 °F 42.6 °F 43.0 °F 93% 29.73 in 7.0 mi West 4.6 mph - 0.00 in Rain Light Rain
7:01 AM 44.6 °F 42.2 °F 42.8 °F 93% 29.71 in 9.0 mi West 4.6 mph - 0.00 in   Overcast
7:09 AM 44.6 °F 42.2 °F 42.8 °F 93% 29.72 in 10.0 mi West 4.6 mph - 0.00 in   Overcast
7:19 AM 44.6 °F 42.2 °F 42.8 °F 93% 29.72 in 8.0 mi West 4.6 mph - 0.00 in   Overcast
7:53 AM 45.0 °F 41.8 °F 43.0 °F 93% 29.74 in 10.0 mi West 5.8 mph - 0.00 in Rain Light Rain
8:29 AM 44.6 °F 40.7 °F 42.8 °F 93% 29.73 in 10.0 mi West 6.9 mph - 0.00 in   Overcast
8:44 AM 44.6 °F 42.2 °F 42.8 °F 93% 29.74 in 9.0 mi WNW 4.6 mph - 0.00 in   Overcast
8:53 AM 45.0 °F 42.6 °F 43.0 °F 93% 29.76 in 4.0 mi NW 4.6 mph - 0.00 in Rain Light Rain
8:56 AM 44.6 °F 42.2 °F 42.8 °F 93% 29.75 in 2.5 mi NNW 4.6 mph - 0.00 in Rain Light Rain
9:00 AM 44.6 °F 42.2 °F 42.8 °F 93% 29.75 in 2.5 mi NNW 4.6 mph - 0.00 in Rain Light Rain
9:07 AM 44.6 °F 42.2 °F 42.8 °F 93% 29.75 in 2.5 mi NW 4.6 mph - 0.00 in Rain Light Rain
9:15 AM 44.6 °F 42.2 °F 44.6 °F 100% 29.75 in 4.0 mi WNW 4.6 mph - 0.00 in Rain Light Rain
9:31 AM 46.4 °F 43.5 °F 44.6 °F 93% 29.76 in 10.0 mi NNW 5.8 mph - 0.00 in Rain Light Rain
9:53 AM 46.0 °F 42.5 °F 43.0 °F 89% 29.78 in 10.0 mi NNW 6.9 mph - 0.00 in Rain Light Rain
10:45 AM 44.6 °F 38.8 °F 41.0 °F 87% 29.78 in 10.0 mi North 11.5 mph - 0.00 in   Overcast
10:53 AM 45.0 °F 39.3 °F 41.0 °F 86% 29.81 in 10.0 mi North 11.5 mph - 0.00 in   Overcast
11:17 AM 46.4 °F 43.5 °F 42.8 °F 87% 29.80 in 10.0 mi North 5.8 mph - N/A   Overcast
11:30 AM 46.4 °F 41.9 °F 41.0 °F 81% 29.80 in 10.0 mi North 9.2 mph - N/A   Overcast
11:53 AM 46.0 °F 41.4 °F 39.9 °F 79% 29.84 in 10.0 mi North 9.2 mph - N/A   Overcast
12:07 PM 46.4 °F 41.9 °F 41.0 °F 81% 29.82 in 10.0 mi North 9.2 mph - N/A   Overcast
12:53 PM 46.9 °F - 39.0 °F 74% 29.85 in 10.0 mi North 11.5 mph - N/A   Overcast
1:53 PM 48.9 °F - 39.0 °F 69% 29.86 in 10.0 mi NNW 10.4 mph 18.4 mph N/A   Mostly Cloudy
2:23 PM 48.2 °F - 37.4 °F 66% 29.84 in 10.0 mi North 10.4 mph - N/A   Overcast
2:36 PM 48.2 °F - 37.4 °F 66% 29.85 in 10.0 mi NNW 9.2 mph - N/A   Overcast
2:48 PM 48.2 °F - 39.2 °F 71% 29.85 in 10.0 mi North 11.5 mph - N/A   Overcast
2:53 PM 48.9 °F - 37.9 °F 66% 29.87 in 10.0 mi North 12.7 mph - N/A   Overcast
3:53 PM 48.0 °F - 37.0 °F 66% 29.89 in 10.0 mi NNW 5.8 mph - N/A   Overcast
4:53 PM 48.0 °F - 36.0 °F 63% 29.92 in 10.0 mi NNW 9.2 mph - N/A   Overcast
5:53 PM 45.0 °F 39.7 °F 39.0 °F 80% 29.96 in 10.0 mi NNE 10.4 mph - 0.00 in   Overcast
6:53 PM 44.1 °F 38.6 °F 39.0 °F 82% 29.99 in 10.0 mi NNE 10.4 mph - 0.00 in   Overcast
7:33 PM 42.8 °F 36.6 °F 37.4 °F 81% 29.99 in 10.0 mi NNE 11.5 mph - N/A   Overcast
7:53 PM 43.0 °F 38.2 °F 37.9 °F 82% 30.02 in 10.0 mi North 8.1 mph - N/A   Overcast
8:53 PM 43.0 °F 39.5 °F 37.9 °F 82% 30.05 in 10.0 mi NNE 5.8 mph - N/A   Overcast
9:53 PM 42.1 °F 37.7 °F 37.9 °F 85% 30.07 in 10.0 mi NNE 6.9 mph - N/A   Overcast
10:53 PM 42.1 °F 40.2 °F 37.9 °F 85% 30.10 in 10.0 mi NNE 3.5 mph - N/A   Overcast
11:12 PM 42.8 °F 39.3 °F 37.4 °F 81% 30.09 in 10.0 mi NE 5.8 mph - N/A   Overcast
11:39 PM 41.0 °F 36.4 °F 37.4 °F 87% 30.09 in 10.0 mi NNE 6.9 mph - N/A   Overcast
11:53 PM 41.0 °F 36.4 °F 37.0 °F 86% 30.12 in 10.0 mi NNE 6.9 mph - N/A   Overcast